Regional Weather Roundup
Issued by NWS Upton, NY

Home | Current Version | Previous Version | Text Only | Print | Product List | Glossary On
Versions: 1 2 3 4 5 6 7 8 9 10 11 12 13 14 15 16 17 18 19 20 21 22 23 24 25 26 27 28
000
ASUS41 KOKX 261508
RWROKX

REGIONAL WEATHER ROUNDUP
NATIONAL WEATHER SERVICE NEW YORK NY
1100 AM EDT TUE SEP 26 2017

NOTE: "FAIR" INDICATES FEW OR NO CLOUDS BELOW 12,000 FEET WITH NO
SIGNIFICANT WEATHER AND/OR OBSTRUCTIONS TO VISIBILITY.

NYZ071-072-176-178-NJZ106-104-261600-
NEW YORK CITY METRO AREA

CITY           SKY/WX    TMP DP  RH WIND       PRES   REMARKS
Central Park   PTSUNNY   74  67  78 CALM      30.09S
Bronx Bot Gard   N/A     73  66  78 SE5       30.06F
LaGuardia APRT PTSUNNY   73  69  87 NE5       30.05F
Kennedy INTL   CLOUDY    75  67  76 E6        30.07S
Breezy Point     N/A     68 N/A N/A E6          N/A
Newark/Liberty CLOUDY    76  67  73 NE5       30.05F
Teterboro      MOSUNNY   78  67  68 VRB3      30.04F
$$

NYZ177-179-078>081-261600-
LONG ISLAND NEW YORK

CITY           SKY/WX    TMP DP  RH WIND       PRES   REMARKS
Jones Beach      N/A     68 N/A N/A SE8         N/A
Matinecock PT    N/A     68 N/A N/A E6          N/A
Farmingdale    MOSUNNY   74  67  78 CALM      30.06R
MacArthur/ISP  PTSUNNY   75  67  76 E5        30.05S
Shirley        PTSUNNY   76  69  79 CALM      30.06F
Mt Sinai Harb    N/A    N/A N/A N/A N5          N/A
Westhampton    CLOUDY    73  68  84 CALM      30.07F
East Hampton   PTSUNNY   72  66  83 CALM      30.05F
Montauk          N/A     70  67  90 N6        30.07F
$$

NYZ052-065-067-261600-
HUDSON VALLEY

CITY           SKY/WX    TMP DP  RH WIND       PRES   REMARKS
White Plains   MOSUNNY   76  66  71 VRB3      30.06S
Larchmont Harb   N/A     68 N/A N/A NE5         N/A
Croton On Huds   N/A     73 N/A N/A SW1         N/A
Newburgh       NOT AVBL
Montgomery     MOSUNNY   79  69  71 S6        30.05S
Poughkeepsie   MOSUNNY   78  66  66 CALM      30.03F
Albany         PTSUNNY   79  67  66 CALM      30.05S
$$

NJZ001-105-106-008-010-013-015-019>022-104-261600-
NEW JERSEY

CITY           SKY/WX    TMP DP  RH WIND       PRES   REMARKS
Newark/Liberty CLOUDY    76  67  73 NE5       30.05F
Teterboro      MOSUNNY   78  67  68 VRB3      30.04F
Caldwell       CLOUDY    77  69  76 E6        30.06F
Somerville     NOT AVBL
Linden         FAIR      75  67  75 CALM      30.06S
Perth Amboy      N/A     70 N/A N/A SE7         N/A
Sussex         MOSUNNY   77  68  73 CALM      30.06S
Andover          N/A     81  66  60 CALM      30.07F
Trenton        MOSUNNY   75  68  78 E7        30.05F
Millville      PTSUNNY   76  69  79 NE9       30.02F
Atlantic City  CLOUDY    72  69  90 NE13      30.04R
Wrightstown    CLOUDY    72  68  86 NE9       30.03S
Toms River     CLOUDY    71  68  90 NE8       30.06S
Belmar         CLOUDY    69  67  93 NE7       30.07F
$$

PAZ047>061-062-071-261600-
EASTERN PENNSYLVANIA

CITY           SKY/WX    TMP DP  RH WIND       PRES   REMARKS
Philadelphia   PTSUNNY   76  67  73 NE6       30.04F
Allentown      MOSUNNY   79  66  64 NE5       30.06F
Scranton       MOSUNNY   81  66  60 W5        30.07S
$$

CTZ002-004>006-009-010-012-RIZ004-006-007-MAZ004-011-015-261600-
SOUTHERN NEW ENGLAND
 IN CT

CITY           SKY/WX    TMP DP  RH WIND       PRES   REMARKS
Bradley INTL   PTSUNNY   74  66  76 CALM      30.06S
Hartford       CLOUDY    74  67  78 CALM      30.04F
Danbury        MOSUNNY   78  68  71 CALM      30.07F
Wtrbury/Oxford MOSUNNY   76  67  73 S3        30.07F
Norwalk Harbor   N/A     68 N/A N/A NE3         N/A
Bridgeport     CLOUDY    70  68  93 CALM      30.06S
Meriden        SUNNY     77  66  68 CALM      30.05F
New Haven      CLOUDY    70  67  90 S3        30.06S FOG
Chester        FAIR      79  70  73 S6        30.06F
Groton         CLOUDY    70  67  90 SE3       30.05F
Wilimantic     MOSUNNY   73  68  84 CALM      30.06S

 IN RI

CITY           SKY/WX    TMP DP  RH WIND       PRES   REMARKS
Providence     PTSUNNY   76  69  79 VRB5      30.05F
Block Island   CLOUDY    71  68  90 CALM      30.07S
Westerly       PTSUNNY   73  67  81 CALM      30.06F
 IN MA

CITY           SKY/WX    TMP DP  RH WIND       PRES   REMARKS
Boston         MOSUNNY   73  69  87 SE7       30.04S
Worcester      SUNNY     77  65  66 S3        30.08S
Westfield      MOSUNNY   76  68  76 S5        30.05S
Provincetown   CLOUDY    66  66 100 SW6       30.06S FOG
Nantucket      CLOUDY    69  68  96 CALM      30.05S FOG
$$

ANZ330-335-338-340-345-350-353-355-261600-
COASTAL MARINE OBSERVATIONS


STATION/POSITION TIME  SKY/WX   TEMP    WIND        PRES    VSBY  WAVE
                                AIR SEA DIR/SP/G                  HT/PER
                 (UTC)          (F)     (DEG/KT/KT) (MB)    (MI)  (FT/S)
NY HARB ENTRANCE 1350            67 72   60/ 10/ 12 1017.0          5/15
20 S FIRE ISLAND 1350            65 69   70/ 10/ 12 1017.9          7/15
GREAT SOUTH BAY  1430            67 73   CALM  /  6   N/A
23 SSW MONTAUK P 1350            64 65              1018.2         10/14
15 E BARNEGAT LI 1430               69                N/A           6/12
HUDSON CANYON    1350            66 68   50/ 12/ 16 1016.3         10/14
KINGS POINT      1424            70 72   30/  6/  6 1018.5
EXECUTION ROCKS  1445            71      40/  6/  8   N/A
WESTERN LI SOUND NOT AVBL
CENTRAL LI SOUND NOT AVBL
EASTERN LI SOUND NOT AVBL
ROBBINS REEF     1430            72     180/  4/  4 1018.4
$$


>>>>>>>>>>>>>>>>>>>>>>>>>>>> KEY <<<<<<<<<<<<<<<<<<<<<<<<<<<
>                                                          <
>     SKY/WX - Sky Condition/Present Weather               <
>     TMP    - Temperature in Fahrenheit                   <
>     DP     - Dew Point in Fahrenheit                     <
>     RH     - Relative Humidity in Percent                <
>     WIND   - Direction (from) and Speed in MPH           <
>     PRES   - Mean Sea Level Pressure (inches of Hg)      <
>     WCI    - Wind Chill Index                            <
>     VSB    - VISIBILITY IN MILES                         <
>     HX     - HEAT INDEX                                  <
>     TC     - TEMPERATURE IN CELSIUS                      <
>     VRB    - VARIABLE WIND DIRECTION                     <
>                                                          <
>>>>>>>>>>>>>>>>>>>>>>>>>>>> KEY <<<<<<<<<<<<<<<<<<<<<<<<<<<




USA.gov is the U.S. government's official web portal to all federal, state and local government web resources and services.